Wichita Mid Continent Airport
KICT : rendu visible

Aérodrome :











RETROUVEZ-NOUS SUR...

 
LOGIN :

S'inscrire | Disclaimer

   EN    FR    IT 

 









Légende :    VFR   VFR Marginal   IFR   IFR Intensif   IFR Très Intensif
Visi : 
Plafond : 
>= 8 km
>= 3000ft
5 à 8 km
1000 à 3000 ft
1500m à 5 km
500 à 1000 ft
800 à 1500m
200 à 500 ft
< 800m
< 200 ft
Symboles :   Orages  Brouillard  Fortes neiges  Fortes précipitations  Vent > 20 kt






- Altitude de l'aérodrome : 1333 ft
- Code IATA : ICT


KICT - Wichita Mid Continent

DERNIER METAR :
  • 260453Z 30011KT 8SM OVC014 M01/M03 A2975 RMK AO2 SLP084 T10111033

METARs EXPIRÉS :
  • 260253Z 31018KT 6SM BR OVC007 M01/M02 A2973 RMK AO2 CIG 006V011 SLP078 60000 I3001 T10111022 51028

TAF KICT
Valide du 26 à 00h jusqu'au 27 à 00h UTC


252338Z 2600/2624 31010KT P6SM OVC008
TEMPO 2600/2603 5SM -DZ BR OVC005
FM260600 32011KT P6SM OVC010
FM262000 01008KT P6SM OVC020
FIR KZKC / Amérique du Nord



MET'MAP, la Météo Aéronautique d'un coup d'oeil ! - Copyright ORBIFLY Décembre 2007 - Disclaimer

ORBIFLY MET'MAP TEAM :

Programmation & Développement : Alexandra Zaïnal
Sur une idée originale de : Baudouin d'Aumeries
Assistance à la programmation : Marc-Olivier Méhu
Soutien technique & logistique : Manuel Goepfert

Contact : metmap@orbifly.com




SOURCES & CREDITS :

   NOAA       Earth
Advisory